[[{"header":{"parameterUnit":"m.s-1","parameterCategory":1,"la1":30.2991,"la2":30.254,"lo1":-89.0895,"lo2":-89.0444,"dy":0.0017,"dx":0.0017,"nx":28,"ny":28,"refTime":"2024-02-02T09:00:00:Z","depth":0,"parameterNumber":2,"parameterNumberName":"U-component_of_WINDS"},"data":[0,0,0,0,0,0,0,0,0,0,0,0,0,0,0,0,0,0,0,0,0,0,0,0,0,0,0,0,0,0,0,0,0,0,0,0,0,0,0,0,0,0,0,0,0,0,0,0,0,0,0,0,0,0,0,0,0,0,-0.7658,-0.7658,0,-0.7674,-0.7674,-0.7674,-0.7641,-0.764,-0.7639,-0.7638,-0.7656,-0.7657,-0.7659,0,0,0,0,0,0,0,0,0,0,0,0,0,-0.76,-0.7601,-0.7658,-0.7658,-0.7658,-0.7674,-0.7674,-0.7674,-0.7642,-0.764,-0.7639,-0.7638,-0.7656,-0.7657,-0.7659,0,0,0,0,0,0,0,0,0,0,0,0,0,-0.7622,-0.7602,-0.7658,-0.7644,-0.7643,-0.7674,-0.7674,-0.7674,-0.7642,-0.764,-0.7639,-0.7637,-0.7655,-0.7657,-0.7659,-0.7705,0,0,-0.7666,-0.7667,0,0,0,0,0,0,0,0,-0.762,-0.7624,-0.7646,-0.7645,-0.7644,-0.7654,-0.766,-0.7684,-0.7642,-0.7642,-0.7638,-0.7636,-0.7657,-0.7659,-0.7665,-0.7706,-0.7706,-0.7666,-0.7668,-0.7668,-0.7669,0,0,0,0,0,0,0,-0.7619,-0.7623,-0.7664,-0.7646,-0.7645,-0.7637,-0.7638,-0.7664,-0.7658,-0.7642,-0.764,-0.7642,-0.7656,-0.7663,-0.7665,-0.7707,-0.7666,-0.7668,-0.7669,-0.767,-0.7785,-0.7786,0,0,0,0,0,0,-0.7619,-0.7622,-0.7664,-0.7665,-0.7628,-0.7639,-0.7641,-0.7652,-0.7658,-0.7657,-0.7643,-0.764,-0.766,-0.7663,-0.7666,-0.7719,-0.7668,-0.7671,-0.7672,-0.7783,-0.7785,-0.7787,0,0,0,0,0,0,-0.7618,-0.7623,-0.7663,-0.7642,-0.7647,-0.7642,-0.7655,-0.7653,-0.7661,-0.7659,-0.7658,-0.7652,-0.7659,-0.7663,-0.7695,-0.7719,-0.7672,-0.7674,-0.7781,-0.7783,-0.7786,-0.7826,0,0,0,0,0,0,-0.7616,-0.7623,-0.764,-0.7643,-0.7648,-0.7692,-0.7657,-0.7655,-0.7664,-0.7661,-0.7667,-0.7666,-0.7658,-0.7692,-0.7697,-0.7721,-0.7675,-0.7779,-0.7782,-0.7785,-0.7823,-0.783,-0.7836,0,0,0,0,0,-0.7614,-0.7651,-0.7641,-0.7646,-0.767,-0.7693,-0.7696,-0.7686,-0.7666,-0.7684,-0.7682,-0.7666,-0.7716,-0.7696,-0.7701,-0.7727,-0.7777,-0.7781,-0.7785,-0.782,-0.7829,-0.7836,0,0,0,0,0,0,-0.7652,-0.7652,-0.764,-0.7679,-0.7686,-0.7688,-0.7709,-0.7696,-0.7709,-0.7705,-0.7692,-0.7694,-0.7729,-0.7731,-0.7708,-0.777,-0.7743,-0.7748,-0.7768,-0.7776,-0.7783,-0.7782,-0.7677,0,0,0,0,0,-0.7665,-0.7684,-0.7683,-0.7717,-0.7721,-0.7715,-0.7725,-0.7716,-0.7723,-0.7726,-0.7727,-0.7735,-0.7753,-0.7764,-0.778,-0.7823,-0.7823,-0.7843,-0.785,-0.7855,-0.786,-0.7882,-0.789,-0.7799,-0.7799,-0.7799,0,0,-0.7692,-0.7694,-0.7707,-0.7725,-0.7729,-0.7749,-0.7718,-0.7741,-0.7755,-0.773,-0.776,-0.7761,-0.7769,-0.7807,-0.7823,-0.781,-0.7885,-0.786,-0.7864,-0.7866,-0.7887,-0.7895,-0.7903,-0.7802,-0.7802,-0.7801,0,0,-0.7751,-0.7754,-0.7783,-0.7788,-0.7795,-0.779,-0.7797,-0.78,-0.78,-0.783,-0.7811,-0.7828,-0.7859,-0.7865,-0.7872,-0.7932,-0.7917,-0.7938,-0.7973,-0.7994,-0.8001,-0.8008,-0.8029,-0.8037,-0.7942,-0.7943,-0.7943,0,-0.7784,-0.7813,-0.78,-0.7824,-0.7832,-0.7809,-0.7838,-0.7844,-0.7856,-0.7862,-0.7846,-0.7883,-0.7887,-0.7925,-0.794,-0.7946,-0.7954,-0.7937,-0.8001,-0.8008,-0.8013,-0.8033,-0.8041,-0.7945,-0.7945,-0.7944,-0.7944,0,-0.7852,-0.7873,-0.7895,-0.7907,-0.7918,-0.7944,-0.7935,-0.7948,-0.7938,-0.7934,-0.7965,-0.7968,-0.7984,-0.7993,-0.7984,-0.8029,-0.8021,-0.8003,-0.7976,-0.8024,-0.8043,-0.8051,-0.7948,-0.7948,-0.7947,-0.7946,0,0,-0.7937,-0.794,-0.7948,-0.7953,-0.7958,-0.7974,-0.7999,-0.8014,-0.8025,-0.8033,-0.8054,-0.808,-0.8063,-0.8071,-0.8063,-0.8081,-0.8128,-0.8062,-0.8062,-0.8074,-0.8179,-0.8192,-0.8201,-0.8118,-0.812,-0.8121,-0.8178,0,-0.7995,-0.8038,-0.8027,-0.8069,-0.8088,-0.8066,-0.8087,-0.8093,-0.8091,-0.8106,-0.8103,-0.8121,-0.8099,-0.8103,-0.8121,-0.8119,-0.8149,-0.8115,-0.8138,-0.8138,-0.8136,-0.8211,-0.8225,-0.8279,-0.8185,-0.8186,-0.8187,0,-0.807,-0.808,-0.8125,-0.8126,-0.8133,-0.8153,-0.8165,-0.818,-0.8186,-0.8183,-0.8191,-0.8178,-0.8203,-0.8174,-0.8208,-0.8185,-0.8193,-0.8194,-0.8195,-0.8198,-0.8166,-0.8215,-0.8296,-0.8304,-0.8199,-0.8198,-0.8197,0,-0.8126,-0.8152,-0.8182,-0.8186,-0.8189,-0.8203,-0.8205,-0.8209,-0.8218,-0.8229,-0.8235,-0.8248,-0.8256,-0.8267,-0.8258,-0.8238,-0.8293,-0.8264,-0.8291,-0.8291,-0.8304,-0.8303,-0.8387,-0.8309,-0.8309,-0.8309,-0.8309,0,-0.8193,-0.8221,-0.8207,-0.8225,-0.8256,-0.8242,-0.8273,-0.8272,-0.8276,-0.8293,-0.8275,-0.8292,-0.8279,-0.8295,-0.8288,-0.8317,-0.832,-0.8318,-0.8316,-0.832,-0.832,-0.8326,-0.8322,-0.8311,-0.831,-0.831,-0.831,0,-0.8262,-0.8254,-0.8285,-0.8284,-0.8284,-0.8307,-0.8306,-0.8323,-0.8319,-0.8341,-0.8346,-0.8339,-0.8357,-0.8349,-0.8367,-0.8363,-0.8399,-0.8392,-0.8397,-0.8396,-0.8423,-0.8421,-0.8514,-0.8525,-0.844,-0.8441,-0.8441,0,-0.8305,-0.8326,-0.8327,-0.8338,-0.834,-0.8357,-0.8366,-0.8353,-0.8364,-0.8371,-0.8387,-0.8403,-0.8415,-0.8444,-0.8441,-0.8455,-0.8448,-0.848,-0.845,-0.8453,-0.8448,-0.8447,-0.8449,-0.8486,-0.8487,-0.8488,-0.8488,0,-0.8383,-0.8377,-0.8391,-0.8403,-0.8414,-0.8423,-0.843,-0.844,-0.8427,-0.8439,-0.8457,-0.8466,-0.8484,-0.85,-0.8512,-0.8514,-0.8499,-0.8497,-0.8504,-0.8509,-0.8511,-0.851,-0.8414,-0.8496,-0.8495,-0.8494,-0.8494,-0.8494,-0.844,-0.8457,-0.8461,-0.8476,-0.848,-0.8487,-0.8502,-0.8499,-0.8514,-0.8527,-0.8519,-0.8539,-0.8543,-0.8558,-0.8562,-0.8577,-0.8565,-0.8575,-0.8578,-0.858,-0.8584,-0.8508,-0.8579,-0.8579,-0.8579,-0.8579,-0.8579,0,-0.8517,-0.8517,-0.8531,-0.8542,-0.8554,-0.8538,-0.8545,-0.8556,-0.8574,-0.8579,-0.8591,-0.8611,-0.8626,-0.8623,-0.8637,-0.865,-0.8643,-0.8654,-0.8653,-0.8653,-0.8594,-0.8587,-0.8659,-0.8659,-0.8659,-0.8659,-0.8659,-0.8659,-0.8558,-0.8586,-0.858,-0.861,-0.861,-0.863,-0.8635,-0.8641,-0.8645,-0.8668,-0.868,-0.8678,-0.868,-0.8693,-0.8706,-0.8705,-0.8711,-0.8724,-0.8721,-0.8666,-0.8658,-0.865,-0.8643,-0.8725,-0.8726,-0.8778,-0.8779,-0.8779]},{"header":{"parameterUnit":"m.s-1","parameterCategory":1,"la1":30.2991,"la2":30.254,"lo1":-89.0895,"lo2":-89.0444,"dy":0.0017,"dx":0.0017,"nx":28,"ny":28,"refTime":"2024-02-02T09:00:00:Z","depth":0,"parameterNumber":3,"parameterNumberName":"V-component_of_WINDS"},"data":[0,0,0,0,0,0,0,0,0,0,0,0,0,0,0,0,0,0,0,0,0,0,0,0,0,0,0,0,0,0,0,0,0,0,0,0,0,0,0,0,0,0,0,0,0,0,0,0,0,0,0,0,0,0,0,0,0,0,-0.5017,-0.5017,0,-0.5058,-0.5058,-0.5059,-0.5066,-0.5065,-0.5065,-0.5065,-0.5107,-0.5108,-0.5109,0,0,0,0,0,0,0,0,0,0,0,0,0,-0.4946,-0.4948,-0.5017,-0.5018,-0.5018,-0.5058,-0.5058,-0.5059,-0.5066,-0.5065,-0.5065,-0.5064,-0.5106,-0.5108,-0.511,0,0,0,0,0,0,0,0,0,0,0,0,0,-0.4981,-0.4948,-0.5017,-0.5026,-0.5027,-0.5057,-0.5058,-0.5059,-0.5066,-0.5065,-0.5065,-0.5064,-0.5106,-0.5108,-0.511,-0.5133,0,0,-0.5116,-0.5117,0,0,0,0,0,0,0,0,-0.4979,-0.4984,-0.5024,-0.5026,-0.5027,-0.5056,-0.5049,-0.5084,-0.5066,-0.5051,-0.5065,-0.5064,-0.509,-0.5094,-0.5102,-0.5135,-0.5137,-0.5117,-0.5118,-0.5119,-0.5119,0,0,0,0,0,0,0,-0.4977,-0.4982,-0.5033,-0.5025,-0.5027,-0.5029,-0.5033,-0.5055,-0.5073,-0.5052,-0.5053,-0.5058,-0.5091,-0.51,-0.5103,-0.5138,-0.5117,-0.5118,-0.512,-0.5121,-0.5193,-0.5193,0,0,0,0,0,0,-0.4972,-0.498,-0.5032,-0.5034,-0.5001,-0.503,-0.5035,-0.5047,-0.5073,-0.5076,-0.5058,-0.5058,-0.5097,-0.5101,-0.5105,-0.5135,-0.5119,-0.5121,-0.5122,-0.5192,-0.5193,-0.5194,0,0,0,0,0,0,-0.4971,-0.4977,-0.503,-0.5007,-0.5014,-0.5032,-0.5046,-0.5048,-0.5058,-0.5077,-0.508,-0.5064,-0.5097,-0.5102,-0.5126,-0.5136,-0.5122,-0.5124,-0.5192,-0.5193,-0.5193,-0.5194,0,0,0,0,0,0,-0.4969,-0.4976,-0.4985,-0.5007,-0.5015,-0.5051,-0.5046,-0.5049,-0.5061,-0.5061,-0.5084,-0.5087,-0.5097,-0.5123,-0.5129,-0.5139,-0.5125,-0.5191,-0.5192,-0.5193,-0.5193,-0.5195,-0.5197,0,0,0,0,0,-0.4966,-0.4984,-0.4986,-0.4992,-0.5027,-0.5051,-0.5056,-0.5066,-0.5062,-0.5071,-0.5084,-0.5086,-0.5134,-0.5126,-0.5132,-0.5143,-0.519,-0.5192,-0.5193,-0.5193,-0.5195,-0.5197,0,0,0,0,0,0,-0.4963,-0.4987,-0.4989,-0.5015,-0.5031,-0.5052,-0.5064,-0.5068,-0.5086,-0.5085,-0.5097,-0.5102,-0.5126,-0.5137,-0.5127,-0.5167,-0.5162,-0.5165,-0.516,-0.5162,-0.5163,-0.516,-0.5127,0,0,0,0,0,-0.4965,-0.4982,-0.5003,-0.5023,-0.5031,-0.5046,-0.5057,-0.5064,-0.5081,-0.5088,-0.5103,-0.512,-0.5138,-0.5151,-0.5169,-0.5195,-0.52,-0.5206,-0.5207,-0.5208,-0.5211,-0.5226,-0.5229,-0.5198,-0.5198,-0.5198,0,0,-0.4969,-0.4985,-0.4995,-0.5023,-0.5036,-0.5054,-0.5052,-0.5071,-0.5085,-0.5091,-0.5115,-0.5126,-0.5146,-0.5172,-0.5184,-0.5181,-0.522,-0.521,-0.5211,-0.5213,-0.5228,-0.523,-0.5233,-0.5199,-0.5199,-0.5199,0,0,-0.4987,-0.5001,-0.5019,-0.5033,-0.5053,-0.5063,-0.5068,-0.5089,-0.5096,-0.5121,-0.5126,-0.5142,-0.5175,-0.5189,-0.52,-0.5223,-0.5227,-0.5229,-0.5237,-0.5252,-0.5254,-0.5257,-0.5265,-0.5268,-0.5231,-0.5231,-0.5231,0,-0.4991,-0.5018,-0.5028,-0.5048,-0.506,-0.5066,-0.5085,-0.5098,-0.5123,-0.5132,-0.5129,-0.517,-0.5183,-0.5212,-0.5218,-0.5227,-0.5233,-0.5227,-0.5253,-0.5255,-0.5258,-0.5266,-0.527,-0.5231,-0.5231,-0.5231,-0.5231,0,-0.5022,-0.5041,-0.5053,-0.5078,-0.5091,-0.511,-0.5124,-0.5136,-0.5142,-0.5152,-0.5177,-0.5194,-0.5216,-0.5223,-0.5229,-0.5253,-0.5251,-0.5251,-0.5245,-0.5261,-0.5269,-0.5272,-0.5232,-0.5232,-0.5232,-0.5232,0,0,-0.5038,-0.5068,-0.5073,-0.5084,-0.5107,-0.5122,-0.5142,-0.5163,-0.5174,-0.5191,-0.5208,-0.5235,-0.5235,-0.5248,-0.5255,-0.5268,-0.5286,-0.5265,-0.5266,-0.5269,-0.5315,-0.5316,-0.5319,-0.5288,-0.5289,-0.5289,-0.5313,0,-0.5059,-0.5094,-0.5105,-0.5134,-0.5152,-0.5158,-0.5176,-0.5192,-0.5202,-0.5219,-0.523,-0.525,-0.5247,-0.5255,-0.5268,-0.5281,-0.5295,-0.5279,-0.5304,-0.5305,-0.53,-0.5324,-0.5324,-0.5346,-0.5317,-0.5317,-0.5318,0,-0.5089,-0.5107,-0.5138,-0.5159,-0.5167,-0.5182,-0.5203,-0.5219,-0.5238,-0.5244,-0.5259,-0.5265,-0.5286,-0.5279,-0.5309,-0.5297,-0.5308,-0.5316,-0.5317,-0.532,-0.5313,-0.5328,-0.5354,-0.5357,-0.5323,-0.5322,-0.5322,0,-0.5099,-0.513,-0.5154,-0.5163,-0.5188,-0.5199,-0.5209,-0.5227,-0.524,-0.5258,-0.5266,-0.5287,-0.5298,-0.5314,-0.5326,-0.5319,-0.5354,-0.5348,-0.5361,-0.5361,-0.5368,-0.5368,-0.5397,-0.5374,-0.5374,-0.5374,-0.5374,0,-0.5121,-0.514,-0.5158,-0.5173,-0.5195,-0.5206,-0.5227,-0.5238,-0.5254,-0.5271,-0.5278,-0.5293,-0.5308,-0.5325,-0.5334,-0.5358,-0.5363,-0.5369,-0.5371,-0.5369,-0.5368,-0.5376,-0.5375,-0.5375,-0.5375,-0.5375,-0.5375,0,-0.5136,-0.5149,-0.5175,-0.5196,-0.5202,-0.5217,-0.5236,-0.525,-0.5261,-0.5282,-0.5288,-0.5304,-0.5325,-0.5338,-0.5365,-0.5371,-0.5397,-0.5399,-0.5391,-0.5392,-0.5404,-0.5403,-0.544,-0.5446,-0.5419,-0.5419,-0.542,0,-0.515,-0.5165,-0.5188,-0.52,-0.5211,-0.523,-0.5243,-0.5254,-0.5268,-0.529,-0.5302,-0.5323,-0.5341,-0.5375,-0.539,-0.541,-0.5413,-0.5424,-0.5416,-0.5413,-0.5414,-0.5413,-0.5415,-0.5426,-0.5426,-0.5426,-0.5426,0,-0.5174,-0.5179,-0.5197,-0.5218,-0.5233,-0.525,-0.5267,-0.5276,-0.5291,-0.5305,-0.5327,-0.5341,-0.5368,-0.539,-0.5412,-0.5423,-0.5428,-0.5429,-0.5433,-0.5431,-0.5426,-0.5429,-0.5396,-0.5428,-0.5428,-0.5428,-0.5427,-0.5427,-0.5189,-0.5203,-0.5221,-0.5242,-0.5255,-0.5271,-0.5286,-0.5298,-0.5316,-0.534,-0.5345,-0.5368,-0.5387,-0.5417,-0.5429,-0.5447,-0.5446,-0.5451,-0.5453,-0.5454,-0.5455,-0.5422,-0.5451,-0.5451,-0.5451,-0.5451,-0.5451,0,-0.5213,-0.5226,-0.5244,-0.5267,-0.5283,-0.5286,-0.5304,-0.5318,-0.5338,-0.5355,-0.5372,-0.5397,-0.5418,-0.5435,-0.5456,-0.5468,-0.5471,-0.5473,-0.5473,-0.5476,-0.5455,-0.545,-0.5471,-0.5471,-0.5471,-0.5471,-0.5471,-0.5471,-0.5228,-0.5252,-0.526,-0.529,-0.5303,-0.5325,-0.5336,-0.535,-0.5364,-0.5392,-0.5409,-0.542,-0.5437,-0.5459,-0.5479,-0.5483,-0.5491,-0.5494,-0.5499,-0.5479,-0.5477,-0.5475,-0.547,-0.5495,-0.5495,-0.5518,-0.5518,-0.5518]}]]